• MPC Preparation (Info)

  • MPEC 2005-G35 : 2005 GQ21

    The following Minor Planet Electronic Circular may be linked-to from your own Web pages, but must not otherwise be redistributed electronically.

    A form allowing access to any MPEC is at the bottom of this page.


    Read MPEC 2005-G34 Read MPEC 2005-G36


    M.P.E.C. 2005-G35                                Issued 2005 Apr. 5, 21:18 UT
    
         The Minor Planet Electronic Circulars contain information on unusual
             minor planets and routine data on comets.  They are published
       on behalf of Commission 20 of the International Astronomical Union by the
              Minor Planet Center, Smithsonian Astrophysical Observatory,
                              Cambridge, MA 02138, U.S.A.
    
                      Supported in part by the Brinson Foundation
                 Prepared using the Tamkin Foundation Computer Network
    
                                  MPC@CFA.HARVARD.EDU
              URL http://cfa-www.harvard.edu/iau/mpc.html  ISSN 1523-6714
    
                                       2005 GQ21
    
    Observations:
         K05G21Q* C2005 04 04.39221 14 28 19.45 -11 58 29.1          19.3   EG035704
         K05G21Q  C2005 04 04.40261 14 28 18.57 -11 57 54.3          19.6   EG035704
         K05G21Q  C2005 04 04.41382 14 28 17.63 -11 57 16.7          19.5   EG035704
         K05G21Q  C2005 04 04.42447 14 28 16.84 -11 56 41.0          19.5   EG035704
         K05G21Q  C2005 04 04.43515 14 28 15.95 -11 56 03.8          19.7   EG035704
         K05G21Q  C2005 04 04.98400 14 27 33.58 -11 25 13.4                 EG035246
         K05G21Q  C2005 04 04.98604 14 27 33.40 -11 25 06.1                 EG035246
         K05G21Q  C2005 04 04.98666 14 27 33.34 -11 25 04.7                 EG035246
         K05G21Q  C2005 04 04.99005 14 27 33.15 -11 24 52.6                 EG035246
         K05G21Q  C2005 04 04.99164 14 27 32.99 -11 24 45.7                 EG035246
         K05G21Q  C2005 04 05.04102 14 27 28.81 -11 21 59.2          19.5 R EG035461
         K05G21Q  C2005 04 05.04352 14 27 28.61 -11 21 50.6                 EG035461
         K05G21Q  C2005 04 05.04690 14 27 28.37 -11 21 39.3                 EG035461
         K05G21Q 2C2005 04 05.30614 14 27 08.31 -11 06 50.7          18.5 R EG035H06
         K05G21Q 2C2005 04 05.31495 14 27 07.30 -11 06 19.7          19.3 R EG035H06
         K05G21Q  C2005 04 05.37823 14 27 02.14 -11 02 45.4          18.4 R EG035703
         K05G21Q  C2005 04 05.38483 14 27 01.59 -11 02 23.3          19.1 R EG035703
         K05G21Q  C2005 04 05.39140 14 27 01.01 -11 02 01.5          18.7 R EG035703
         K05G21Q  C2005 04 05.39798 14 27 00.37 -11 01 38.6          19.2 R EG035703
         K05G21Q  C2005 04 05.45579 14 26 55.51 -10 58 22.2          18.4 R EG035703
         K05G21Q  C2005 04 05.46183 14 26 54.94 -10 57 59.3          18.7 R EG035703
    
    Observer details:
    246 Klet Observatory-KLENOT.  Observer M. Tichy.  1.06-m KLENOT Telescope
        + CCD.
    461 Szeged University, Piszkesteto Stn. (Konkoly).  Observer K. Sarneczky.
        0.60-m Schmidt + CCD.
    703 Catalina Sky Survey.  Observer E. Beshore.  Measurers E. C. Beshore,
        C. M. Casey, E. J. Christensen, G. J. Garradd, R. E. Hill, S. M. Larson,
        R. H. McNaught.  0.68-m Schmidt + CCD.
    704 Lincoln Laboratory ETS, New Mexico.  Observers M. Blythe, F. Shelly,
        M. Bezpalko, R. Huber, L. Manguso, D. Torres, R. Kracke, M. McCleary,
        H. Stange, A. Milner.  Measurers J. Stuart, R. Sayer, J. Evans, J. Kommers.
        1.0-m f/2.15 reflector + CCD.
    H06 New Mexico Skies Observatory.  Observer R. Hutsebaut.  0.30-m reflector
        + CCD.
    
    Orbital elements:
    2005 GQ21
    Epoch 2005 Mar. 31.0 TT = JDT 2453460.5                 MPC
    M 194.75551              (2000.0)            P               Q
    n   0.65813611     Peri.  169.35424     +0.96372326     -0.11835515
    a   1.3089576      Node   202.29070     +0.17396873     +0.95829599
    e   0.1947779      Incl.   39.10152     +0.20241631     -0.26011700
    P   1.50           H   18.6           G   0.15
    From 18 observations 2005 Apr. 4-5.
    
    Ephemeris:
    2005 GQ21                a,e,i = 1.31, 0.19, 39                  q = 1.0540
    Date    TT    R. A. (2000) Decl.     Delta      r     Elong.  Phase     V
    2005 03 31    14 33.48   -15 52.7    0.613    1.558   149.3    19.1    19.5
    2005 04 10    14 20.41   -06 29.0    0.564    1.552   163.6    10.5    19.0
    2005 04 20    14 03.87   +03 56.2    0.552    1.543   164.3    10.1    18.9
    2005 04 30    13 46.82   +13 34.7    0.575    1.532   149.8    19.3    19.3
    2005 05 10    13 32.21   +21 05.3    0.627    1.519   134.8    28.1    19.7
    2005 05 20    13 22.08   +26 12.5    0.698    1.503   122.0    34.8    20.1
    2005 05 30    13 17.10   +29 22.0    0.778    1.485   111.3    39.5    20.5
    2005 06 09    13 17.02   +31 06.3    0.859    1.466   102.6    42.5    20.8
    2005 06 19    13 21.27   +31 51.3    0.937    1.444    95.3    44.5    21.0
    2005 06 29    13 29.13   +31 55.3    1.008    1.421    89.1    45.7    21.1
    2005 07 09    13 40.02   +31 29.7    1.070    1.396    83.9    46.4    21.2
    2005 07 19    13 53.54   +30 41.9    1.121    1.369    79.5    46.9    21.3
    2005 07 29    14 09.35   +29 36.6    1.159    1.342    75.9    47.2    21.3
    2005 08 08    14 27.31   +28 15.8    1.185    1.313    72.8    47.6    21.4
    2005 08 18    14 47.36   +26 40.8    1.198    1.283    70.4    48.0    21.3
    2005 08 28    15 09.50   +24 51.6    1.198    1.253    68.6    48.6    21.3
    2005 09 07    15 33.86   +22 46.9    1.187    1.224    67.2    49.4    21.3
    2005 09 17    16 00.60   +20 25.0    1.166    1.195    66.3    50.4    21.2
    2005 09 27    16 29.88   +17 43.6    1.137    1.167    65.7    51.6    21.1
    2005 10 07    17 01.91   +14 40.0    1.104    1.140    65.4    52.9    21.0
    2005 10 17    17 36.82   +11 13.2    1.071    1.116    65.2    54.2    21.0
    2005 10 27    18 14.60   +07 23.8    1.042    1.095    65.1    55.4    20.9
    2005 11 06    18 55.06   +03 17.0    1.021    1.078    64.8    56.3    20.8
    2005 11 16    19 37.72   -00 56.7    1.011    1.065    64.3    56.8    20.8
    2005 11 26    20 21.79   -05 03.0    1.017    1.057    63.7    56.8    20.8
    2005 12 06    21 06.36   -08 46.1    1.037    1.054    62.8    56.2    20.8
    2005 12 16    21 50.50   -11 53.4    1.070    1.056    61.7    55.1    20.9
    2005 12 26    22 33.44   -14 18.6    1.113    1.063    60.6    53.7    20.9
    
    Timothy B. Spahr             (C) Copyright 2005 MPC           M.P.E.C. 2005-G35
    

    Read MPEC 2005-G34 Read MPEC 2005-G36


    MPEC number:

    Enter an MPEC number in one of the following forms:

    • 1997-B01 (the full form)
    • J97B01 (the packed version of the full form)
    • B01 (the abbreviated form)